This demonstration page uses our WeatherBlox Daily Observations layout. Learn more.

Left ArrowRight Arrow

36.17497, -115.13722

Hourly Observations for January 13, 2019

Temp ( °F °C ) Dew Point ( °F °C ) Humidity (%) Winds ( mph kmh ) Pressure ( in mb ) Visibility ( mi km ) Precip ( " mm )
12:53 am 00:53 Clear 42 5.6 25 -3.9 51 51 Calm 30.13 1020 10 16.0934 0 0
1:53 am 01:53 Clear 43 6.1 26 -3.3 51 51 SW 5 7 30.14 1021 10 16.0934 0 0
2:53 am 02:53 Clear 41 5 26 -3.3 55 55 W 5 7 30.14 1021 10 16.0934 0 0
3:53 am 03:53 Clear 43 6.1 25 -3.9 49 49 WNW 5 7 30.14 1021 10 16.0934 0 0
4:53 am 04:53 Clear 38 3.3 25 -3.9 60 60 WNW 5 7 30.15 1021 10 16.0934 0 0
5:53 am 05:53 Clear 38 3.3 25 -3.9 60 60 NW 3 6 30.18 1022 10 16.0934 0 0
6:53 am 06:53 Sunny 37 2.8 24 -4.4 59 59 NW 5 7 30.19 1022 10 16.0934 0 0
7:53 am 07:53 Sunny 39 3.9 25 -3.9 57 57 Calm 30.21 1023 10 16.0934 0 0
8:53 am 08:53 Sunny 43 6.1 26 -3.3 51 51 WSW 3 6 30.23 1024 10 16.0934 0 0
9:53 am 09:53 Sunny 48 8.9 25 -3.9 41 41 Calm 30.24 1024 10 16.0934 0 0
10:53 am 10:53 Sunny 50 10 24 -4.4 36 36 Calm 30.23 1024 10 16.0934 0 0
11:53 am 11:53 Sunny 52 11.1 24 -4.4 34 34 Calm 30.18 1022 10 16.0934 0 0
12:53 pm 12:53 Sunny 54 12.2 23 -5 30 30 NNE 3 6 30.16 1021 10 16.0934 0 0
1:53 pm 13:53 Sunny 56 13.3 23 -5 28 28 VRB 6 9 30.15 1021 10 16.0934 0 0
2:53 pm 14:53 Sunny 55 12.8 23 -5 29 29 ESE 12 19 30.16 1021 10 16.0934 0 0
3:53 pm 15:53 Sunny 55 12.8 23 -5 29 29 E 8 13 30.16 1021 10 16.0934 0 0
4:53 pm 16:53 Clear 52 11.1 23 -5 32 32 ESE 3 6 30.17 1022 10 16.0934 0 0
5:53 pm 17:53 Clear 51 10.6 24 -4.4 35 35 SW 3 6 30.18 1022 10 16.0934 0 0
6:53 pm 18:53 Clear 48 8.9 25 -3.9 41 41 SW 3 6 30.2 1023 10 16.0934 0 0
7:53 pm 19:53 Clear 47 8.3 25 -3.9 42 42 Calm 30.21 1023 10 16.0934 0 0
8:53 pm 20:53 Mostly Cloudy 45 7.2 26 -3.3 48 48 Calm 30.23 1024 10 16.0934 0 0
9:53 pm 21:53 Cloudy 44 6.7 25 -3.9 47 47 NNW 5 7 30.24 1024 10 16.0934 0 0
10:53 pm 22:53 Mostly Cloudy 44 6.7 25 -3.9 47 47 NW 5 7 30.23 1024 10 16.0934 0 0
11:53 pm 23:53 Partly Cloudy 45 7.2 26 -3.3 48 48 N 5 7 30.22 1023 10 16.0934 0 0

Powered by AerisWeather